Погода в Угольных Копях

Россия / Чукотский автономный округ     64°44′29″N   177°41′23″E
темп.,
°C
ветер,
м/с
пор.,
м/с
влажн.,
%
обл.,
%
осадки,
мм/ч
давл.,
гПа
погр.,
м
18 мая, ср
ср1800:000ююв3390100 0.0 101835
03:000юв3394100 0.0 101664
06:00+1юв238997 0.0 1016159
09:00+2ююв448257 0.0 1016335
12:00+4ююв338157 0.0 1015376
15:00+5ю3377100 0.0 1014423
18:00+5юв457888 0.0 1013277
21:00+3юв588998 0.0 1013217
19 мая, чт
чт1900:00+2юв4592100 0.0 1014128
03:00+3ююв3492100 0.1 1015125
06:00+2з2297100 0.5 1016105
09:00+3юз1194100 0.3 1017105
12:00+4ю2387100 0.3 1018313
15:00+5ю2385100 0.0 1018348
18:00+5ююв2384100 0.0 1019309
21:00+4ююв2289100 0.1 102031
20 мая, пт
пт2000:00+4ююв2291100 0.1 102118
03:00+3юв2290100 0.0 102221
06:00+4ююв238563 0.1 1023119
09:00+5ююв337534 0.0 1024514
12:00+6ююв437238 0.1 1025650
15:00+6ююв547339 0.0 1025640
18:00+6юв347335 0.1 1025519
21:00+4юв348233 0.0 1026143
21 мая, сб
сб2100:00+2юв239113 0.0 102677
03:00+2юв239364 0.0 1026129
06:00+3юв1387100 0.0 1026299
09:00+3ююв1283100 0.0 1026401
12:00+4ююв2379100 0.0 1026490
15:00+4ююв3475100 0.0 1025492
18:00+4ю237493 0.0 1025369
21:00+1ююв238656 0.0 102596
22 мая, вс
вс2200:000юв228925 0.0 102412
03:00−1юв118911 0.0 102410
06:00+2ссз00775 0.0 1023127
09:00+5сз11655 0.0 1023383
12:00+7зюз12535 0.0 1021740
15:00+8юз22526 0.0 1020584
18:00+8ю2254100 0.0 1019268
21:00+6юз1158100 0.0 101922